Time,TemperatureF,DewpointF,PressureIn,WindDirection,WindDirectionDegrees,WindSpeedMPH,WindSpeedGustMPH,Humidity,HourlyPrecipIn,Conditions,Clouds,dailyrainin,SoftwareType,DateUTC
2013-04-03 00:02:00,48.0,41.5,30.11,NE,45,0.0,9.0,78,0.00,,,0.00,Weather View 32 v70,2013-04-03 07:02:00,
2013-04-03 00:08:00,48.0,42.1,30.11,NE,45,0.0,9.0,80,0.00,,,0.00,Weather View 32 v70,2013-04-03 07:08:00,
2013-04-03 00:13:00,48.0,41.5,30.11,NE,45,0.0,9.0,78,0.00,,,0.00,Weather View 32 v70,2013-04-03 07:13:00,
2013-04-03 00:18:00,47.0,40.5,30.12,NE,45,0.0,9.0,78,0.00,,,0.00,Weather View 32 v70,2013-04-03 07:18:00,
2013-04-03 00:23:00,47.0,40.5,30.13,NE,45,0.0,7.0,78,0.00,,,0.00,Weather View 32 v70,2013-04-03 07:23:00,
2013-04-03 00:28:00,48.0,41.5,30.13,NE,45,0.0,7.0,78,0.00,,,0.00,Weather View 32 v70,2013-04-03 07:28:00,
2013-04-03 00:33:00,48.0,41.5,30.12,NE,45,0.0,7.0,78,0.00,,,0.00,Weather View 32 v70,2013-04-03 07:33:00,
2013-04-03 00:38:00,48.0,41.5,30.12,NE,45,0.0,7.0,78,0.00,,,0.00,Weather View 32 v70,2013-04-03 07:38:00,
2013-04-03 00:43:00,48.0,42.1,30.12,NE,45,2.0,6.0,80,0.00,,,0.00,Weather View 32 v70,2013-04-03 07:43:00,
2013-04-03 00:48:00,48.0,41.5,30.12,NE,45,0.0,6.0,78,0.00,,,0.00,Weather View 32 v70,2013-04-03 07:48:00,
2013-04-03 00:53:00,48.0,41.5,30.12,NE,45,1.0,6.0,78,0.00,,,0.00,Weather View 32 v70,2013-04-03 07:53:00,
2013-04-03 00:58:00,48.0,41.5,30.12,NE,45,0.0,6.0,78,0.00,,,0.00,Weather View 32 v70,2013-04-03 07:58:00,
2013-04-03 01:03:00,48.0,41.5,30.12,NE,45,2.0,6.0,78,0.00,,,0.00,Weather View 32 v70,2013-04-03 08:03:00,
2013-04-03 01:08:00,48.0,41.5,30.13,NE,45,1.0,7.0,78,0.00,,,0.00,Weather View 32 v70,2013-04-03 08:08:00,
2013-04-03 01:13:00,48.0,41.5,30.12,NE,45,1.0,7.0,78,0.00,,,0.00,Weather View 32 v70,2013-04-03 08:13:00,
2013-04-03 01:18:00,48.0,42.1,30.12,NE,45,2.0,7.0,80,0.00,,,0.00,Weather View 32 v70,2013-04-03 08:18:00,
2013-04-03 01:23:00,48.0,41.5,30.12,NE,45,2.0,7.0,78,0.00,,,0.00,Weather View 32 v70,2013-04-03 08:23:00,
2013-04-03 01:28:00,48.0,41.5,30.12,NE,45,0.0,7.0,78,0.00,,,0.00,Weather View 32 v70,2013-04-03 08:28:00,
2013-04-03 01:33:00,48.0,41.5,30.11,NE,45,0.0,7.0,78,0.00,,,0.00,Weather View 32 v70,2013-04-03 08:33:00,
2013-04-03 01:38:00,49.0,42.4,30.11,NE,45,1.0,7.0,78,0.00,,,0.00,Weather View 32 v70,2013-04-03 08:38:00,
2013-04-03 01:43:00,49.0,42.4,30.11,NE,45,0.0,7.0,78,0.00,,,0.00,Weather View 32 v70,2013-04-03 08:43:00,
2013-04-03 01:45:00,49.0,42.4,30.11,NE,45,0.0,7.0,78,0.00,,,0.00,Weather View 32 v70,2013-04-03 08:45:00,
2013-04-03 01:48:00,49.0,42.4,30.11,NE,45,4.0,7.0,78,0.00,,,0.00,Weather View 32 v70,2013-04-03 08:48:00,
2013-04-03 01:53:00,49.0,43.1,30.11,NE,45,0.0,7.0,80,0.00,,,0.00,Weather View 32 v70,2013-04-03 08:53:00,
2013-04-03 02:08:00,49.0,42.4,30.11,NE,45,0.0,7.0,78,0.00,,,0.00,Weather View 32 v70,2013-04-03 09:08:00,
2013-04-03 02:13:00,48.0,41.5,30.11,NE,45,0.0,7.0,78,0.00,,,0.00,Weather View 32 v70,2013-04-03 09:13:00,
2013-04-03 02:18:00,48.0,41.5,30.11,NE,45,0.0,8.0,78,0.00,,,0.00,Weather View 32 v70,2013-04-03 09:18:00,
2013-04-03 02:23:00,49.0,42.4,30.11,NE,45,2.0,8.0,78,0.00,,,0.00,Weather View 32 v70,2013-04-03 09:23:00,
2013-04-03 02:28:00,49.0,43.1,30.11,NE,45,4.0,10.0,80,0.00,,,0.00,Weather View 32 v70,2013-04-03 09:28:00,
2013-04-03 02:32:00,48.0,41.5,30.11,NE,45,4.0,10.0,78,0.00,,,0.00,Weather View 32 v70,2013-04-03 09:32:00,
2013-04-03 02:37:00,48.0,41.5,30.11,NE,45,2.0,10.0,78,0.00,,,0.00,Weather View 32 v70,2013-04-03 09:37:00,
2013-04-03 02:42:00,49.0,43.1,30.11,NE,45,0.0,10.0,80,0.00,,,0.00,Weather View 32 v70,2013-04-03 09:42:00,
2013-04-03 02:47:00,48.0,41.5,30.11,NE,45,2.0,10.0,78,0.00,,,0.00,Weather View 32 v70,2013-04-03 09:47:00,
2013-04-03 02:57:00,48.0,41.5,30.11,NE,45,0.0,10.0,78,0.00,,,0.00,Weather View 32 v70,2013-04-03 09:57:00,
2013-04-03 03:02:00,49.0,42.4,30.11,NE,45,4.0,10.0,78,0.00,,,0.00,Weather View 32 v70,2013-04-03 10:02:00,
2013-04-03 03:07:00,48.0,41.5,30.11,NE,45,3.0,10.0,78,0.00,,,0.00,Weather View 32 v70,2013-04-03 10:07:00,
2013-04-03 03:12:00,48.0,41.5,30.10,NE,45,4.0,10.0,78,0.00,,,0.00,Weather View 32 v70,2013-04-03 10:12:00,
2013-04-03 03:22:00,48.0,41.5,30.10,NE,45,1.0,10.0,78,0.00,,,0.00,Weather View 32 v70,2013-04-03 10:22:00,
2013-04-03 03:27:00,48.0,41.5,30.11,NE,45,1.0,10.0,78,0.00,,,0.00,Weather View 32 v70,2013-04-03 10:27:00,
2013-04-03 03:32:00,48.0,41.5,30.11,NE,45,0.0,8.0,78,0.00,,,0.00,Weather View 32 v70,2013-04-03 10:32:00,
2013-04-03 03:37:00,48.0,41.5,30.11,NE,45,4.0,8.0,78,0.00,,,0.00,Weather View 32 v70,2013-04-03 10:37:00,
2013-04-03 03:42:00,48.0,41.5,30.11,NE,45,0.0,8.0,78,0.00,,,0.00,Weather View 32 v70,2013-04-03 10:42:00,
2013-04-03 03:46:00,48.0,41.5,30.11,NE,45,0.0,8.0,78,0.00,,,0.00,Weather View 32 v70,2013-04-03 10:46:00,
2013-04-03 03:47:00,48.0,41.5,30.11,NE,45,0.0,8.0,78,0.00,,,0.00,Weather View 32 v70,2013-04-03 10:47:00,
2013-04-03 03:52:00,48.0,42.1,30.10,NE,45,0.0,8.0,80,0.00,,,0.00,Weather View 32 v70,2013-04-03 10:52:00,
2013-04-03 03:57:00,48.0,41.5,30.10,NE,45,0.0,8.0,78,0.00,,,0.00,Weather View 32 v70,2013-04-03 10:57:00,
2013-04-03 04:02:00,48.0,41.5,30.10,NE,45,0.0,7.0,78,0.00,,,0.00,Weather View 32 v70,2013-04-03 11:02:00,
2013-04-03 04:08:00,48.0,41.5,30.10,NE,45,0.0,7.0,78,0.00,,,0.00,Weather View 32 v70,2013-04-03 11:08:00,
2013-04-03 04:13:00,48.0,42.1,30.10,NE,45,0.0,7.0,80,0.00,,,0.00,Weather View 32 v70,2013-04-03 11:13:00,
2013-04-03 04:23:00,48.0,41.5,30.09,NE,45,0.0,6.0,78,0.00,,,0.00,Weather View 32 v70,2013-04-03 11:23:00,
2013-04-03 04:28:00,48.0,41.5,30.09,NE,45,0.0,6.0,78,0.00,,,0.00,Weather View 32 v70,2013-04-03 11:28:00,
2013-04-03 04:33:00,48.0,41.5,30.09,NE,45,0.0,6.0,78,0.00,,,0.00,Weather View 32 v70,2013-04-03 11:33:00,
2013-04-03 04:38:00,48.0,41.5,30.09,NE,45,0.0,6.0,78,0.00,,,0.00,Weather View 32 v70,2013-04-03 11:38:00,
2013-04-03 04:43:00,48.0,41.5,30.09,NE,45,0.0,5.0,78,0.00,,,0.00,Weather View 32 v70,2013-04-03 11:43:00,
2013-04-03 04:47:00,48.0,41.5,30.09,NE,45,0.0,5.0,78,0.00,,,0.00,Weather View 32 v70,2013-04-03 11:47:00,
2013-04-03 04:53:00,48.0,41.5,30.09,NE,45,0.0,4.0,78,0.00,,,0.00,Weather View 32 v70,2013-04-03 11:53:00,
2013-04-03 04:58:00,48.0,41.5,30.09,NE,45,0.0,4.0,78,0.00,,,0.00,Weather View 32 v70,2013-04-03 11:58:00,
2013-04-03 05:03:00,49.0,42.4,30.09,NE,45,0.0,4.0,78,0.00,,,0.00,Weather View 32 v70,2013-04-03 12:03:00,
2013-04-03 05:08:00,49.0,42.4,30.09,NE,45,1.0,4.0,78,0.00,,,0.00,Weather View 32 v70,2013-04-03 12:08:00,
2013-04-03 05:13:00,49.0,42.4,30.09,NE,45,0.0,4.0,78,0.00,,,0.00,Weather View 32 v70,2013-04-03 12:13:00,
2013-04-03 05:18:00,49.0,42.4,30.09,NE,45,0.0,4.0,78,0.00,,,0.00,Weather View 32 v70,2013-04-03 12:18:00,
2013-04-03 05:23:00,49.0,43.1,30.09,NE,45,0.0,4.0,80,0.00,,,0.00,Weather View 32 v70,2013-04-03 12:23:00,
2013-04-03 05:28:00,49.0,42.4,30.09,NE,45,0.0,4.0,78,0.00,,,0.00,Weather View 32 v70,2013-04-03 12:28:00,
2013-04-03 05:33:00,49.0,42.4,30.09,NE,45,0.0,4.0,78,0.00,,,0.00,Weather View 32 v70,2013-04-03 12:33:00,
2013-04-03 05:38:00,49.0,42.4,30.09,NE,45,0.0,4.0,78,0.00,,,0.00,Weather View 32 v70,2013-04-03 12:38:00,
2013-04-03 05:43:00,49.0,42.4,30.09,NE,45,0.0,4.0,78,0.00,,,0.00,Weather View 32 v70,2013-04-03 12:43:00,
2013-04-03 05:48:00,49.0,42.4,30.09,NE,45,0.0,6.0,78,0.00,,,0.00,Weather View 32 v70,2013-04-03 12:48:00,
2013-04-03 05:53:00,49.0,42.4,30.09,NE,45,1.0,6.0,78,0.00,,,0.00,Weather View 32 v70,2013-04-03 12:53:00,
2013-04-03 05:58:00,50.0,44.1,30.09,NE,45,0.0,6.0,80,0.00,,,0.00,Weather View 32 v70,2013-04-03 12:58:00,
2013-04-03 06:03:00,49.0,42.4,30.09,NE,45,0.0,6.0,78,0.00,,,0.00,Weather View 32 v70,2013-04-03 13:03:00,
2013-04-03 06:08:00,50.0,43.4,30.08,NE,45,0.0,6.0,78,0.00,,,0.00,Weather View 32 v70,2013-04-03 13:08:00,
2013-04-03 06:13:00,49.0,42.4,30.08,NE,45,0.0,6.0,78,0.00,,,0.00,Weather View 32 v70,2013-04-03 13:13:00,
2013-04-03 06:17:00,50.0,43.4,30.08,NE,45,0.0,6.0,78,0.00,,,0.00,Weather View 32 v70,2013-04-03 13:17:00,
2013-04-03 06:22:00,50.0,43.4,30.08,NE,45,0.0,6.0,78,0.00,,,0.00,Weather View 32 v70,2013-04-03 13:22:00,
2013-04-03 06:27:00,50.0,43.4,30.09,NE,45,0.0,6.0,78,0.00,,,0.00,Weather View 32 v70,2013-04-03 13:27:00,
2013-04-03 06:32:00,50.0,44.1,30.09,NE,45,0.0,6.0,80,0.00,,,0.00,Weather View 32 v70,2013-04-03 13:32:00,
2013-04-03 06:37:00,50.0,43.1,30.09,NE,45,0.0,6.0,77,0.00,,,0.00,Weather View 32 v70,2013-04-03 13:37:00,
2013-04-03 06:42:00,49.0,40.7,30.09,NE,45,1.0,6.0,73,0.00,,,0.00,Weather View 32 v70,2013-04-03 13:42:00,
2013-04-03 06:48:00,49.0,38.9,30.09,NE,45,1.0,5.0,68,0.00,,,0.00,Weather View 32 v70,2013-04-03 13:48:00,
2013-04-03 06:57:00,49.0,37.7,30.10,NE,45,2.0,6.0,65,0.00,,,0.00,Weather View 32 v70,2013-04-03 13:57:00,
2013-04-03 07:02:00,49.0,37.7,30.10,NE,45,0.0,6.0,65,0.00,,,0.00,Weather View 32 v70,2013-04-03 14:02:00,
2013-04-03 07:07:00,49.0,37.3,30.10,NE,45,0.0,6.0,64,0.00,,,0.00,Weather View 32 v70,2013-04-03 14:07:00,
2013-04-03 07:12:00,49.0,37.3,30.10,NE,45,0.0,6.0,64,0.00,,,0.00,Weather View 32 v70,2013-04-03 14:12:00,
2013-04-03 07:17:00,49.0,37.3,30.11,NE,45,0.0,6.0,64,0.00,,,0.00,Weather View 32 v70,2013-04-03 14:17:00,
2013-04-03 07:22:00,49.0,36.1,30.11,NE,45,0.0,6.0,61,0.00,,,0.00,Weather View 32 v70,2013-04-03 14:22:00,
2013-04-03 07:27:00,49.0,36.9,30.11,NE,45,0.0,7.0,63,0.00,,,0.00,Weather View 32 v70,2013-04-03 14:27:00,
2013-04-03 07:32:00,49.0,36.5,30.10,NE,45,5.0,7.0,62,0.00,,,0.00,Weather View 32 v70,2013-04-03 14:32:00,
2013-04-03 07:37:00,48.0,35.6,30.11,NE,45,3.0,7.0,62,0.00,,,0.00,Weather View 32 v70,2013-04-03 14:37:00,
2013-04-03 07:42:00,48.0,35.2,30.11,NE,45,4.0,7.0,61,0.00,,,0.00,Weather View 32 v70,2013-04-03 14:42:00,
2013-04-03 07:47:00,48.0,34.8,30.11,NE,45,3.0,7.0,60,0.00,,,0.00,Weather View 32 v70,2013-04-03 14:47:00,
2013-04-03 07:48:00,48.0,34.8,30.11,NE,45,3.0,7.0,60,0.00,,,0.00,Weather View 32 v70,2013-04-03 14:48:00,
2013-04-03 07:52:00,48.0,34.3,30.11,NE,45,3.0,7.0,59,0.00,,,0.00,Weather View 32 v70,2013-04-03 14:52:00,
2013-04-03 07:57:00,49.0,-47.8,30.11,NE,45,2.0,7.0,1,0.00,,,0.00,Weather View 32 v70,2013-04-03 14:57:00,
2013-04-03 08:03:00,48.0,34.3,30.11,NE,45,0.0,7.0,59,0.00,,,0.00,Weather View 32 v70,2013-04-03 15:03:00,
2013-04-03 08:08:00,49.0,35.7,30.11,NE,45,0.0,7.0,60,0.00,,,0.00,Weather View 32 v70,2013-04-03 15:08:00,
2013-04-03 08:13:00,49.0,34.8,30.11,NE,45,5.0,7.0,58,0.00,,,0.00,Weather View 32 v70,2013-04-03 15:13:00,
2013-04-03 08:18:00,49.0,-47.8,30.11,NE,45,1.0,7.0,1,0.00,,,0.00,Weather View 32 v70,2013-04-03 15:18:00,
2013-04-03 08:23:00,49.0,35.7,30.11,NE,45,0.0,7.0,60,0.00,,,0.00,Weather View 32 v70,2013-04-03 15:23:00,
2013-04-03 08:28:00,49.0,36.1,30.11,NE,45,0.0,7.0,61,0.00,,,0.00,Weather View 32 v70,2013-04-03 15:28:00,
2013-04-03 08:33:00,49.0,36.1,30.11,NE,45,0.0,7.0,61,0.00,,,0.00,Weather View 32 v70,2013-04-03 15:33:00,
2013-04-03 08:38:00,49.0,36.1,30.11,NE,45,0.0,6.0,61,0.00,,,0.00,Weather View 32 v70,2013-04-03 15:38:00,
2013-04-03 08:43:00,49.0,35.3,30.11,NE,45,0.0,6.0,59,0.00,,,0.00,Weather View 32 v70,2013-04-03 15:43:00,
2013-04-03 08:48:00,49.0,34.4,30.11,NE,45,0.0,6.0,57,0.00,,,0.00,Weather View 32 v70,2013-04-03 15:48:00,
2013-04-03 08:50:00,49.0,34.4,30.11,NE,45,0.0,6.0,57,0.00,,,0.00,Weather View 32 v70,2013-04-03 15:50:00,
2013-04-03 08:53:00,50.0,-47.2,30.11,NE,45,0.0,6.0,1,0.00,,,0.00,Weather View 32 v70,2013-04-03 15:53:00,
2013-04-03 08:58:00,50.0,35.8,30.11,NE,45,0.0,6.0,58,0.00,,,0.00,Weather View 32 v70,2013-04-03 15:58:00,
2013-04-03 09:03:00,50.0,35.8,30.11,NE,45,0.0,6.0,58,0.00,,,0.00,Weather View 32 v70,2013-04-03 16:03:00,
2013-04-03 09:08:00,50.0,35.8,30.11,NE,45,0.0,6.0,58,0.00,,,0.00,Weather View 32 v70,2013-04-03 16:08:00,
2013-04-03 09:13:00,50.0,34.9,30.11,NE,45,0.0,6.0,56,0.00,,,0.00,Weather View 32 v70,2013-04-03 16:13:00,
2013-04-03 09:18:00,51.0,36.3,30.10,NE,45,0.0,4.0,57,0.00,,,0.00,Weather View 32 v70,2013-04-03 16:18:00,
2013-04-03 09:23:00,51.0,35.4,30.10,NE,45,0.0,4.0,55,0.00,,,0.00,Weather View 32 v70,2013-04-03 16:23:00,
2013-04-03 09:28:00,51.0,-46.6,30.10,NE,45,0.0,4.0,1,0.00,,,0.00,Weather View 32 v70,2013-04-03 16:28:00,
2013-04-03 09:33:00,51.0,36.3,30.10,NE,45,0.0,4.0,57,0.00,,,0.00,Weather View 32 v70,2013-04-03 16:33:00,
2013-04-03 09:38:00,52.0,36.3,30.10,NE,45,0.0,5.0,55,0.00,,,0.00,Weather View 32 v70,2013-04-03 16:38:00,
2013-04-03 09:43:00,52.0,36.8,30.10,NE,45,0.0,5.0,56,0.00,,,0.00,Weather View 32 v70,2013-04-03 16:43:00,
2013-04-03 09:48:00,53.0,37.2,30.10,NE,45,0.0,5.0,55,0.00,,,0.00,Weather View 32 v70,2013-04-03 16:48:00,
2013-04-03 09:53:00,53.0,36.8,30.09,NE,45,0.0,5.0,54,0.00,,,0.00,Weather View 32 v70,2013-04-03 16:53:00,
2013-04-03 09:58:00,53.0,36.3,30.09,NE,45,2.0,5.0,53,0.00,,,0.00,Weather View 32 v70,2013-04-03 16:58:00,
2013-04-03 10:03:00,53.0,-45.3,30.09,NE,45,0.0,5.0,1,0.00,,,0.00,Weather View 32 v70,2013-04-03 17:03:00,
2013-04-03 10:08:00,54.0,36.7,30.09,NE,45,2.0,5.0,52,0.00,,,0.00,Weather View 32 v70,2013-04-03 17:08:00,
2013-04-03 10:13:00,54.0,36.2,30.09,NE,45,0.0,5.0,51,0.00,,,0.00,Weather View 32 v70,2013-04-03 17:13:00,
2013-04-03 10:18:00,55.0,36.7,30.08,NE,45,0.0,5.0,50,0.00,,,0.00,Weather View 32 v70,2013-04-03 17:18:00,
2013-04-03 10:23:00,56.0,37.1,30.08,NE,45,0.0,5.0,49,0.00,,,0.00,Weather View 32 v70,2013-04-03 17:23:00,
2013-04-03 10:28:00,56.0,36.5,30.08,NE,45,2.0,5.0,48,0.00,,,0.00,Weather View 32 v70,2013-04-03 17:28:00,
2013-04-03 10:33:00,57.0,37.5,30.08,NE,45,0.0,5.0,48,0.00,,,0.00,Weather View 32 v70,2013-04-03 17:33:00,
2013-04-03 10:38:00,58.0,-42.3,30.07,NE,45,0.0,5.0,1,0.00,,,0.00,Weather View 32 v70,2013-04-03 17:38:00,
2013-04-03 10:43:00,58.0,38.4,30.07,NE,45,0.0,6.0,48,0.00,,,0.00,Weather View 32 v70,2013-04-03 17:43:00,
2013-04-03 10:48:00,59.0,39.8,30.07,NE,45,0.0,6.0,49,0.00,,,0.00,Weather View 32 v70,2013-04-03 17:48:00,
2013-04-03 10:51:00,59.0,39.8,30.07,NE,45,0.0,6.0,49,0.00,,,0.00,Weather View 32 v70,2013-04-03 17:51:00,
2013-04-03 10:53:00,59.0,38.8,30.07,NE,45,2.0,6.0,47,0.00,,,0.00,Weather View 32 v70,2013-04-03 17:53:00,
2013-04-03 10:58:00,59.0,39.8,30.07,NE,45,0.0,6.0,49,0.00,,,0.00,Weather View 32 v70,2013-04-03 17:58:00,
2013-04-03 11:03:00,60.0,39.7,30.07,ENE,67,1.0,6.0,47,0.00,,,0.00,Weather View 32 v70,2013-04-03 18:03:00,
2013-04-03 11:08:00,62.0,43.1,30.06,ENE,67,0.0,6.0,50,0.00,,,0.00,Weather View 32 v70,2013-04-03 18:08:00,
2013-04-03 11:13:00,63.0,-39.3,30.05,NE,45,0.0,6.0,1,0.00,,,0.00,Weather View 32 v70,2013-04-03 18:13:00,
2013-04-03 11:18:00,63.0,42.4,30.05,ENE,67,0.0,6.0,47,0.00,,,0.00,Weather View 32 v70,2013-04-03 18:18:00,
2013-04-03 11:23:00,63.0,44.0,30.05,ENE,67,0.0,6.0,50,0.00,,,0.00,Weather View 32 v70,2013-04-03 18:23:00,
2013-04-03 11:28:00,63.0,40.1,30.05,ENE,67,0.0,6.0,43,0.00,,,0.00,Weather View 32 v70,2013-04-03 18:28:00,
2013-04-03 11:33:00,63.0,40.1,30.05,NE,45,0.0,6.0,43,0.00,,,0.00,Weather View 32 v70,2013-04-03 18:33:00,
2013-04-03 11:38:00,64.0,43.9,30.05,SSW,202,0.0,7.0,48,0.00,,,0.00,Weather View 32 v70,2013-04-03 18:38:00,
2013-04-03 11:43:00,64.0,44.9,30.04,SE,135,0.0,7.0,50,0.00,,,0.00,Weather View 32 v70,2013-04-03 18:43:00,
2013-04-03 11:48:00,64.0,-38.7,30.04,SE,135,0.0,7.0,1,0.00,,,0.00,Weather View 32 v70,2013-04-03 18:48:00,
2013-04-03 11:53:00,64.0,42.8,30.04,SE,135,0.0,7.0,46,0.00,,,0.00,Weather View 32 v70,2013-04-03 18:53:00,
2013-04-03 11:58:00,64.0,42.2,30.04,ENE,67,0.0,7.0,45,0.00,,,0.00,Weather View 32 v70,2013-04-03 18:58:00,
2013-04-03 12:03:00,64.0,41.0,30.04,SE,135,3.0,7.0,43,0.00,,,0.00,Weather View 32 v70,2013-04-03 19:03:00,
2013-04-03 12:08:00,65.0,41.9,30.04,ENE,67,0.0,7.0,43,0.00,,,0.00,Weather View 32 v70,2013-04-03 19:08:00,
2013-04-03 12:13:00,66.0,42.2,30.03,South,180,0.0,7.0,42,0.00,,,0.00,Weather View 32 v70,2013-04-03 19:13:00,
2013-04-03 12:18:00,67.0,43.7,30.02,NNE,22,0.0,7.0,43,0.00,,,0.00,Weather View 32 v70,2013-04-03 19:18:00,
2013-04-03 12:23:00,68.0,-36.3,30.01,SE,135,0.0,7.0,1,0.00,,,0.00,Weather View 32 v70,2013-04-03 19:23:00,
2013-04-03 12:28:00,68.0,48.1,30.01,SE,135,3.0,7.0,49,0.00,,,0.00,Weather View 32 v70,2013-04-03 19:28:00,
2013-04-03 12:33:00,67.0,46.6,30.01,ENE,67,0.0,7.0,48,0.00,,,0.00,Weather View 32 v70,2013-04-03 19:33:00,
2013-04-03 12:38:00,67.0,47.2,30.01,SW,225,0.0,7.0,49,0.00,,,0.00,Weather View 32 v70,2013-04-03 19:38:00,
2013-04-03 12:43:00,67.0,43.1,30.01,ESE,112,5.0,7.0,42,0.00,,,0.00,Weather View 32 v70,2013-04-03 19:43:00,
2013-04-03 12:48:00,68.0,48.1,30.01,SE,135,0.0,7.0,49,0.00,,,0.00,Weather View 32 v70,2013-04-03 19:48:00,
2013-04-03 12:52:00,68.0,48.1,30.01,SE,135,0.0,7.0,49,0.00,,,0.00,Weather View 32 v70,2013-04-03 19:52:00,
2013-04-03 12:53:00,69.0,46.1,30.00,North,360,0.0,7.0,44,0.00,,,0.00,Weather View 32 v70,2013-04-03 19:53:00,
2013-04-03 12:58:00,69.0,-35.7,30.00,ENE,67,2.0,7.0,1,0.00,,,0.00,Weather View 32 v70,2013-04-03 19:58:00,
2013-04-03 13:03:00,69.0,47.9,30.00,NE,45,0.0,6.0,47,0.00,,,0.00,Weather View 32 v70,2013-04-03 20:03:00,
2013-04-03 13:08:00,70.0,48.2,29.99,SE,135,3.0,7.0,46,0.00,,,0.00,Weather View 32 v70,2013-04-03 20:08:00,
2013-04-03 13:13:00,70.0,51.0,29.98,SW,225,0.0,7.0,51,0.00,,,0.00,Weather View 32 v70,2013-04-03 20:13:00,
2013-04-03 13:18:00,70.0,45.8,29.98,ESE,112,2.0,7.0,42,0.00,,,0.00,Weather View 32 v70,2013-04-03 20:18:00,
2013-04-03 13:23:00,71.0,50.3,29.98,SE,135,0.0,7.0,48,0.00,,,0.00,Weather View 32 v70,2013-04-03 20:23:00,
2013-04-03 13:28:00,71.0,46.0,29.97,ENE,67,0.0,7.0,41,0.00,,,0.00,Weather View 32 v70,2013-04-03 20:28:00,
2013-04-03 13:33:00,72.0,-33.9,29.97,SE,135,0.0,7.0,1,0.00,,,0.00,Weather View 32 v70,2013-04-03 20:33:00,
2013-04-03 13:38:00,72.0,46.9,29.97,ENE,67,0.0,7.0,41,0.00,,,0.00,Weather View 32 v70,2013-04-03 20:38:00,
2013-04-03 13:43:00,72.0,49.4,29.96,SW,225,0.0,7.0,45,0.00,,,0.00,Weather View 32 v70,2013-04-03 20:43:00,
2013-04-03 13:48:00,71.0,45.4,29.96,ESE,112,6.0,8.0,40,0.00,,,0.00,Weather View 32 v70,2013-04-03 20:48:00,
2013-04-03 13:53:00,72.0,50.6,29.96,SE,135,0.0,8.0,47,0.00,,,0.00,Weather View 32 v70,2013-04-03 20:53:00,
2013-04-03 13:58:00,72.0,46.3,29.96,SE,135,0.0,8.0,40,0.00,,,0.00,Weather View 32 v70,2013-04-03 20:58:00,
2013-04-03 14:03:00,73.0,46.5,29.95,ENE,67,0.0,8.0,39,0.00,,,0.00,Weather View 32 v70,2013-04-03 21:03:00,
2013-04-03 14:08:00,73.0,-33.3,29.95,SE,135,2.0,8.0,1,0.00,,,0.00,Weather View 32 v70,2013-04-03 21:08:00,
2013-04-03 14:13:00,73.0,46.5,29.95,SE,135,0.0,8.0,39,0.00,,,0.00,Weather View 32 v70,2013-04-03 21:13:00,
2013-04-03 14:18:00,74.0,50.6,29.95,SW,225,0.0,8.0,44,0.00,,,0.00,Weather View 32 v70,2013-04-03 21:18:00,
2013-04-03 14:23:00,74.0,47.4,29.94,ESE,112,0.0,8.0,39,0.00,,,0.00,Weather View 32 v70,2013-04-03 21:23:00,
2013-04-03 14:28:00,75.0,48.3,29.94,SE,135,2.0,8.0,39,0.00,,,0.00,Weather View 32 v70,2013-04-03 21:28:00,
2013-04-03 14:33:00,76.0,49.2,29.94,SE,135,0.0,8.0,39,0.00,,,0.00,Weather View 32 v70,2013-04-03 21:33:00,
2013-04-03 14:38:00,76.0,48.5,29.93,ESE,112,2.0,8.0,38,0.00,,,0.00,Weather View 32 v70,2013-04-03 21:38:00,
2013-04-03 14:43:00,77.0,-30.9,29.93,SW,225,0.0,8.0,1,0.00,,,0.00,Weather View 32 v70,2013-04-03 21:43:00,
2013-04-03 14:48:00,77.0,49.4,29.93,SE,135,0.0,7.0,38,0.00,,,0.00,Weather View 32 v70,2013-04-03 21:48:00,
2013-04-03 14:53:00,79.0,51.8,29.93,SW,225,1.0,7.0,39,0.00,,,0.00,Weather View 32 v70,2013-04-03 21:53:00,
2013-04-03 14:57:00,79.0,51.8,29.91,SW,225,6.0,8.0,39,0.00,,,0.00,Weather View 32 v70,2013-04-03 21:57:00,
2013-04-03 15:02:00,77.0,54.0,29.91,SW,225,4.0,8.0,45,0.00,,,0.00,Weather View 32 v70,2013-04-03 22:02:00,
2013-04-03 15:07:00,76.0,47.8,29.93,SW,225,6.0,9.0,37,0.00,,,0.00,Weather View 32 v70,2013-04-03 22:07:00,
2013-04-03 15:12:00,75.0,48.3,29.93,SW,225,4.0,12.0,39,0.00,,,0.00,Weather View 32 v70,2013-04-03 22:12:00,
2013-04-03 15:17:00,74.0,-32.7,29.94,SW,225,4.0,12.0,1,0.00,,,0.00,Weather View 32 v70,2013-04-03 22:17:00,
2013-04-03 15:22:00,73.0,44.4,29.94,SW,225,7.0,13.0,36,0.00,,,0.00,Weather View 32 v70,2013-04-03 22:22:00,
2013-04-03 15:27:00,70.0,41.7,29.95,SW,225,12.0,17.0,36,0.00,,,0.00,Weather View 32 v70,2013-04-03 22:27:00,
2013-04-03 15:32:00,68.0,-36.3,29.97,NE,45,5.0,17.0,1,0.00,,,0.00,Weather View 32 v70,2013-04-03 22:32:00,
2013-04-03 15:37:00,66.0,42.8,29.97,NNE,22,3.0,17.0,43,0.00,,,0.00,Weather View 32 v70,2013-04-03 22:37:00,
2013-04-03 15:42:00,64.0,38.5,29.98,NE,45,7.0,17.0,39,0.00,,,0.00,Weather View 32 v70,2013-04-03 22:42:00,
2013-04-03 15:47:00,64.0,37.1,29.99,NE,45,5.0,17.0,37,0.00,,,0.00,Weather View 32 v70,2013-04-03 22:47:00,
2013-04-03 15:52:00,64.0,36.4,29.99,NE,45,4.0,17.0,36,0.00,,,0.00,Weather View 32 v70,2013-04-03 22:52:00,
2013-04-03 15:53:00,64.0,36.4,29.99,NE,45,4.0,17.0,36,0.00,,,0.00,Weather View 32 v70,2013-04-03 22:53:00,
2013-04-03 16:02:00,64.0,35.0,29.98,NE,45,6.0,17.0,34,0.00,,,0.00,Weather View 32 v70,2013-04-03 23:02:00,
2013-04-03 16:07:00,63.0,-39.3,29.98,ENE,67,7.0,17.0,1,0.00,,,0.00,Weather View 32 v70,2013-04-03 23:07:00,
2013-04-03 16:12:00,63.0,35.6,29.98,NE,45,7.0,17.0,36,0.00,,,0.00,Weather View 32 v70,2013-04-03 23:12:00,
2013-04-03 16:17:00,63.0,34.9,29.99,NE,45,9.0,17.0,35,0.00,,,0.00,Weather View 32 v70,2013-04-03 23:17:00,
2013-04-03 16:22:00,62.0,34.0,29.97,NE,45,9.0,17.0,35,0.00,,,0.00,Weather View 32 v70,2013-04-03 23:22:00,
2013-04-03 16:27:00,62.0,31.7,29.97,NE,45,7.0,17.0,32,0.00,,,0.00,Weather View 32 v70,2013-04-03 23:27:00,
2013-04-03 16:32:00,60.0,34.3,29.98,NE,45,2.0,17.0,38,0.00,,,0.00,Weather View 32 v70,2013-04-03 23:32:00,
2013-04-03 16:37:00,61.0,35.8,29.98,NE,45,8.0,16.0,39,0.00,,,0.00,Weather View 32 v70,2013-04-03 23:37:00,
2013-04-03 16:42:00,60.0,-41.1,29.98,NE,45,8.0,16.0,1,0.00,,,0.00,Weather View 32 v70,2013-04-03 23:42:00,
2013-04-03 16:47:00,59.0,33.4,29.98,NE,45,11.0,18.0,38,0.00,,,0.00,Weather View 32 v70,2013-04-03 23:47:00,
2013-04-03 16:52:00,58.0,35.6,29.99,NE,45,13.0,21.0,43,0.00,,,0.00,Weather View 32 v70,2013-04-03 23:52:00,
2013-04-03 16:57:00,57.0,31.6,29.99,NE,45,12.0,21.0,38,0.00,,,0.00,Weather View 32 v70,2013-04-03 23:57:00,
2013-04-03 17:02:00,57.0,36.4,29.99,NE,45,9.0,21.0,46,0.00,,,0.00,Weather View 32 v70,2013-04-04 00:02:00,
2013-04-03 17:07:00,56.0,32.0,30.00,NE,45,11.0,21.0,40,0.00,,,0.00,Weather View 32 v70,2013-04-04 00:07:00,
2013-04-03 17:17:00,56.0,-43.5,29.99,NE,45,9.0,21.0,1,0.00,,,0.00,Weather View 32 v70,2013-04-04 00:17:00,
2013-04-03 17:22:00,56.0,28.0,29.99,NE,45,6.0,24.0,34,0.00,,,0.00,Weather View 32 v70,2013-04-04 00:22:00,
2013-04-03 17:27:00,55.0,31.1,29.99,NE,45,4.0,24.0,40,0.00,,,0.00,Weather View 32 v70,2013-04-04 00:27:00,
2013-04-03 17:37:00,55.0,27.8,29.99,NE,45,6.0,24.0,35,0.00,,,0.00,Weather View 32 v70,2013-04-04 00:37:00,
2013-04-03 17:42:00,56.0,30.0,29.99,NE,45,10.0,24.0,37,0.00,,,0.00,Weather View 32 v70,2013-04-04 00:42:00,
2013-04-03 17:47:00,55.0,29.8,29.99,NE,45,4.0,24.0,38,0.00,,,0.00,Weather View 32 v70,2013-04-04 00:47:00,
2013-04-03 17:52:00,56.0,-43.5,29.99,NE,45,5.0,24.0,1,0.00,,,0.00,Weather View 32 v70,2013-04-04 00:52:00,
2013-04-03 17:57:00,56.0,30.7,29.99,NE,45,6.0,24.0,38,0.00,,,0.00,Weather View 32 v70,2013-04-04 00:57:00,
2013-04-03 18:02:00,55.0,34.6,29.99,NE,45,15.0,24.0,46,0.00,,,0.00,Weather View 32 v70,2013-04-04 01:02:00,
2013-04-03 18:07:00,54.0,38.2,29.99,NE,45,9.0,24.0,55,0.00,,,0.00,Weather View 32 v70,2013-04-04 01:07:00,
2013-04-03 18:12:00,53.0,38.1,29.99,NE,45,14.0,24.0,57,0.00,,,0.00,Weather View 32 v70,2013-04-04 01:12:00,
2013-04-03 18:17:00,52.0,37.2,30.00,NE,45,6.0,24.0,57,0.00,,,0.00,Weather View 32 v70,2013-04-04 01:17:00,
2013-04-03 18:22:00,52.0,37.2,30.00,NE,45,9.0,24.0,57,0.00,,,0.00,Weather View 32 v70,2013-04-04 01:22:00,
2013-04-03 18:27:00,52.0,-46.0,30.00,NE,45,13.0,23.0,1,0.00,,,0.00,Weather View 32 v70,2013-04-04 01:27:00,
2013-04-03 18:37:00,51.0,36.7,30.00,NE,45,8.0,23.0,58,0.00,,,0.00,Weather View 32 v70,2013-04-04 01:37:00,
2013-04-03 18:42:00,51.0,36.3,30.00,NE,45,12.0,23.0,57,0.00,,,0.00,Weather View 32 v70,2013-04-04 01:42:00,
2013-04-03 18:47:00,51.0,36.7,30.00,NE,45,3.0,23.0,58,0.00,,,0.00,Weather View 32 v70,2013-04-04 01:47:00,
2013-04-03 18:52:00,51.0,36.7,30.01,NE,45,10.0,23.0,58,0.00,,,0.00,Weather View 32 v70,2013-04-04 01:52:00,
2013-04-03 18:57:00,51.0,37.2,30.01,NE,45,5.0,23.0,59,0.00,,,0.00,Weather View 32 v70,2013-04-04 01:57:00,
2013-04-03 19:02:00,51.0,-5.9,30.01,NE,45,6.0,23.0,9,0.00,,,0.00,Weather View 32 v70,2013-04-04 02:02:00,
2013-04-03 19:07:00,51.0,38.0,30.01,NE,45,7.0,23.0,61,0.00,,,0.00,Weather View 32 v70,2013-04-04 02:07:00,
2013-04-03 19:12:00,51.0,38.0,30.00,NE,45,11.0,23.0,61,0.00,,,0.00,Weather View 32 v70,2013-04-04 02:12:00,
2013-04-03 19:17:00,51.0,38.0,30.01,NE,45,9.0,23.0,61,0.00,,,0.00,Weather View 32 v70,2013-04-04 02:17:00,
2013-04-03 19:22:00,50.0,37.1,30.01,NE,45,8.0,22.0,61,0.00,,,0.00,Weather View 32 v70,2013-04-04 02:22:00,
2013-04-03 19:27:00,50.0,37.5,30.01,NE,45,9.0,22.0,62,0.00,,,0.00,Weather View 32 v70,2013-04-04 02:27:00,
2013-04-03 19:32:00,50.0,38.7,30.01,NE,45,2.0,22.0,65,0.00,,,0.00,Weather View 32 v70,2013-04-04 02:32:00,
2013-04-03 19:37:00,50.0,39.1,30.01,NE,45,3.0,22.0,66,0.00,,,0.00,Weather View 32 v70,2013-04-04 02:37:00,
2013-04-03 19:42:00,50.0,39.1,30.01,NE,45,0.0,20.0,66,0.00,,,0.00,Weather View 32 v70,2013-04-04 02:42:00,
2013-04-03 19:47:00,50.0,39.5,30.01,NE,45,8.0,18.0,67,0.00,,,0.00,Weather View 32 v70,2013-04-04 02:47:00,
2013-04-03 19:52:00,50.0,39.8,30.01,NE,45,1.0,18.0,68,0.00,,,0.00,Weather View 32 v70,2013-04-04 02:52:00,
2013-04-03 19:57:00,50.0,39.8,30.01,NE,45,2.0,18.0,68,0.00,,,0.00,Weather View 32 v70,2013-04-04 02:57:00,
2013-04-03 20:03:00,50.0,40.6,30.01,NE,45,0.0,18.0,70,0.00,,,0.00,Weather View 32 v70,2013-04-04 03:03:00,
2013-04-03 20:08:00,50.0,41.0,30.01,NE,45,3.0,18.0,71,0.00,,,0.00,Weather View 32 v70,2013-04-04 03:08:00,
2013-04-03 20:13:00,50.0,41.0,30.01,NE,45,7.0,18.0,71,0.00,,,0.00,Weather View 32 v70,2013-04-04 03:13:00,
2013-04-03 20:18:00,50.0,41.0,30.01,NE,45,10.0,18.0,71,0.00,,,0.00,Weather View 32 v70,2013-04-04 03:18:00,
2013-04-03 20:28:00,50.0,41.7,30.01,NE,45,5.0,13.0,73,0.00,,,0.00,Weather View 32 v70,2013-04-04 03:28:00,
2013-04-03 20:33:00,50.0,42.4,30.01,NE,45,3.0,13.0,75,0.00,,,0.00,Weather View 32 v70,2013-04-04 03:33:00,
2013-04-03 20:38:00,50.0,41.7,30.01,NE,45,0.0,11.0,73,0.00,,,0.00,Weather View 32 v70,2013-04-04 03:38:00,
2013-04-03 20:43:00,50.0,42.0,30.02,NE,45,2.0,11.0,74,0.00,,,0.00,Weather View 32 v70,2013-04-04 03:43:00,
2013-04-03 20:48:00,49.0,41.1,30.03,NE,45,0.0,11.0,74,0.00,,,0.00,Weather View 32 v70,2013-04-04 03:48:00,
2013-04-03 20:53:00,49.0,41.4,30.03,NE,45,7.0,11.0,75,0.00,,,0.00,Weather View 32 v70,2013-04-04 03:53:00,
2013-04-03 20:56:00,49.0,41.4,30.03,NE,45,7.0,11.0,75,0.00,,,0.00,Weather View 32 v70,2013-04-04 03:56:00,
2013-04-03 20:58:00,49.0,41.4,30.03,NE,45,0.0,11.0,75,0.00,,,0.00,Weather View 32 v70,2013-04-04 03:58:00,
2013-04-03 21:03:00,49.0,41.4,30.03,NE,45,0.0,12.0,75,0.00,,,0.00,Weather View 32 v70,2013-04-04 04:03:00,
2013-04-03 21:08:00,49.0,42.4,30.03,NE,45,0.0,12.0,78,0.00,,,0.00,Weather View 32 v70,2013-04-04 04:08:00,
2013-04-03 21:13:00,49.0,41.8,30.03,NE,45,0.0,12.0,76,0.00,,,0.00,Weather View 32 v70,2013-04-04 04:13:00,
2013-04-03 21:18:00,49.0,42.1,30.03,NE,45,2.0,12.0,77,0.00,,,0.00,Weather View 32 v70,2013-04-04 04:18:00,
2013-04-03 21:23:00,49.0,42.1,30.02,NE,45,1.0,12.0,77,0.00,,,0.00,Weather View 32 v70,2013-04-04 04:23:00,
2013-04-03 21:28:00,49.0,42.4,30.02,NE,45,2.0,12.0,78,0.00,,,0.00,Weather View 32 v70,2013-04-04 04:28:00,
2013-04-03 21:33:00,49.0,42.4,30.03,NE,45,3.0,12.0,78,0.00,,,0.00,Weather View 32 v70,2013-04-04 04:33:00,
2013-04-03 21:38:00,49.0,42.4,30.03,NE,45,0.0,12.0,78,0.00,,,0.00,Weather View 32 v70,2013-04-04 04:38:00,
2013-04-03 21:43:00,49.0,43.1,30.03,NE,45,0.0,12.0,80,0.00,,,0.00,Weather View 32 v70,2013-04-04 04:43:00,
2013-04-03 21:48:00,48.0,41.5,30.03,NE,45,0.0,12.0,78,0.00,,,0.00,Weather View 32 v70,2013-04-04 04:48:00,
2013-04-03 21:53:00,48.0,41.5,30.03,NE,45,0.0,12.0,78,0.00,,,0.00,Weather View 32 v70,2013-04-04 04:53:00,
2013-04-03 21:57:00,48.0,41.5,30.03,NE,45,0.0,12.0,78,0.00,,,0.00,Weather View 32 v70,2013-04-04 04:57:00,
2013-04-03 21:58:00,48.0,41.5,30.03,NE,45,0.0,12.0,78,0.00,,,0.00,Weather View 32 v70,2013-04-04 04:58:00,
2013-04-03 22:08:00,48.0,41.5,30.03,NE,45,0.0,8.0,78,0.00,,,0.00,Weather View 32 v70,2013-04-04 05:08:00,
2013-04-03 22:13:00,48.0,41.5,30.03,NE,45,0.0,7.0,78,0.00,,,0.00,Weather View 32 v70,2013-04-04 05:13:00,
2013-04-03 22:23:00,48.0,41.5,30.03,NE,45,2.0,7.0,78,0.00,,,0.00,Weather View 32 v70,2013-04-04 05:23:00,
2013-04-03 22:28:00,49.0,42.4,30.03,NE,45,0.0,7.0,78,0.00,,,0.00,Weather View 32 v70,2013-04-04 05:28:00,
2013-04-03 22:33:00,49.0,42.4,30.03,NE,45,1.0,11.0,78,0.00,,,0.00,Weather View 32 v70,2013-04-04 05:33:00,
2013-04-03 22:38:00,49.0,42.4,30.03,NE,45,5.0,11.0,78,0.00,,,0.00,Weather View 32 v70,2013-04-04 05:38:00,
2013-04-03 22:43:00,49.0,42.4,30.03,NE,45,7.0,15.0,78,0.00,,,0.00,Weather View 32 v70,2013-04-04 05:43:00,
2013-04-03 22:48:00,49.0,42.4,30.03,NE,45,8.0,15.0,78,0.00,,,0.00,Weather View 32 v70,2013-04-04 05:48:00,
2013-04-03 22:53:00,49.0,43.1,30.03,NE,45,3.0,15.0,80,0.00,,,0.00,Weather View 32 v70,2013-04-04 05:53:00,
2013-04-03 22:57:00,49.0,43.1,30.03,NE,45,3.0,15.0,80,0.00,,,0.00,Weather View 32 v70,2013-04-04 05:57:00,
2013-04-03 22:58:00,49.0,42.4,30.03,NE,45,6.0,15.0,78,0.00,,,0.00,Weather View 32 v70,2013-04-04 05:58:00,
2013-04-03 23:03:00,49.0,42.4,30.02,NE,45,5.0,15.0,78,0.00,,,0.00,Weather View 32 v70,2013-04-04 06:03:00,
2013-04-03 23:08:00,49.0,42.4,30.03,NE,45,2.0,15.0,78,0.00,,,0.00,Weather View 32 v70,2013-04-04 06:08:00,
2013-04-03 23:13:00,49.0,42.4,30.03,NE,45,5.0,15.0,78,0.00,,,0.00,Weather View 32 v70,2013-04-04 06:13:00,
2013-04-03 23:18:00,49.0,42.4,30.03,NE,45,7.0,15.0,78,0.00,,,0.00,Weather View 32 v70,2013-04-04 06:18:00,
2013-04-03 23:23:00,49.0,42.4,30.03,NE,45,6.0,15.0,78,0.00,,,0.00,Weather View 32 v70,2013-04-04 06:23:00,
2013-04-03 23:28:00,49.0,43.1,30.03,NE,45,6.0,15.0,80,0.00,,,0.00,Weather View 32 v70,2013-04-04 06:28:00,
2013-04-03 23:33:00,49.0,42.4,30.03,NE,45,5.0,15.0,78,0.00,,,0.00,Weather View 32 v70,2013-04-04 06:33:00,
2013-04-03 23:38:00,49.0,42.4,30.03,NE,45,6.0,15.0,78,0.00,,,0.00,Weather View 32 v70,2013-04-04 06:38:00,
2013-04-03 23:43:00,49.0,42.4,30.03,NE,45,6.0,15.0,78,0.00,,,0.00,Weather View 32 v70,2013-04-04 06:43:00,
2013-04-03 23:48:00,49.0,42.4,30.03,NE,45,6.0,15.0,78,0.00,,,0.00,Weather View 32 v70,2013-04-04 06:48:00,
2013-04-03 23:53:00,49.0,42.4,30.04,NE,45,7.0,15.0,78,0.00,,,0.00,Weather View 32 v70,2013-04-04 06:53:00,
2013-04-03 23:58:00,49.0,42.4,30.04,NE,45,3.0,15.0,78,0.00,,,0.00,Weather View 32 v70,2013-04-04 06:58:00,